Regional Weather Roundup
Issued by NWS Newport/Morehead, NC

Current Version | Previous Version | Text Only | Print | Product List | Glossary On
Versions: 1 2 3 4 5 6 7 8 9 10 11 12 13 14 15 16 17 18 19 20 21 22 23 24 25 26 27 28 29 30 31 32 33 34 35 36 37 38 39 40 41 42 43 44 45 46 47 48 49 50
000
ASUS42 KMHX 221310
RWRMHX
WEATHER ROUNDUP FOR EASTERN NORTH CAROLINA
NATIONAL WEATHER SERVICE NEWPORT/MOREHEAD CITY NC
900 AM EDT FRI AUG 22 2014

NOTE: "FAIR" INDICATES FEW OR NO CLOUDS BELOW 12,000 FEET
WITH NO SIGNIFICANT WEATHER AND/OR OBSTRUCTIONS TO VISIBILITY

NCZ015>017-031-032-045>047-102-103-221400-
NORTH COAST

CITY           SKY/WX    TMP DP  RH WIND       PRES   REMARKS
EDENTON        MOSUNNY   78  73  84 W5        29.99S
ELIZABETH CITY PTSUNNY   77  71  82 W8        29.98S
KITTY HAWK     MOSUNNY   76  73  88 CALM      29.96F
MANTEO         PTSUNNY   79  72  78 NW3       29.97F

$$

NCZ045>047-081-094-103-104-221400-
CENTRAL COAST

CITY           SKY/WX    TMP DP  RH WIND       PRES   REMARKS
FRISCO         PTSUNNY   80  76  87 VRB5      29.98R
SWANQUARTER      N/A     81 N/A N/A W6        29.97S

$$

NCZ095-097-098-100-101-221400-
SOUTHERN COAST

CITY           SKY/WX    TMP DP  RH WIND       PRES   REMARKS
BEAUFORT       PTSUNNY   82  74  76 W3        30.00S
CEDAR ISLAND     N/A     82 N/A N/A W7        30.03S
JACKSONVILLE   MOSUNNY   81  73  76 W7        30.01R
NEWPORT        NOT AVBL
PINEY ISLAND   PTSUNNY   83  75  77 W8        29.99S
WILMINGTON     PTSUNNY   80  75  84 W5        30.03R


$$

NCZ011>013-027>030-043-044-078>080-089-090>093-098-221400-
COASTAL PLAIN

CITY           SKY/WX    TMP DP  RH WIND       PRES   REMARKS
AHOSKIE        SUNNY     76  70  82 NW5       30.00S
CLINTON        SUNNY     82  74  74 CALM      30.03S
ELIZABETHTOWN  SUNNY     81  73  76 NW3       30.04R
GOLDSBORO      MOSUNNY   80  76  85 W6        30.00S
GREENVILLE     MOSUNNY   81  73  78 NW3       30.02S HAZE
HAVELOCK       PTSUNNY   80  72  76 W8        30.01S
KENANSVILLE    SUNNY     83  69  63 W3        30.03S
KINSTON        MOSUNNY   81  73  78 W5        30.02R
NEW BERN       PTSUNNY   82  73  74 CALM      30.02R
RICHLANDS      MOSUNNY   81  72  74 W3        30.02S
ROANOKE RAPIDS NOT AVBL
ROCKY MOUNT    SUNNY     80  73  79 W5        30.01S
WASHINGTON     MOSUNNY   79  73  83 CALM      30.01S
WHITEVILLE     MOSUNNY   82  73  74 CALM      30.03R

$$

AMZ130-135-150-152-154-156-158-170-250-252-270-ANZ085-086-088-633-658-670-221400-
MARINE OBSERVATIONS

STATION/POSITION TIME  TEMP    WIND        PRES    WAVE   SWELL
                       AIR SEA DIR/SP/G            HT/PER HT/PER
                 (UTC) (F)     (DEG/KT/KT) (MB)    (FT/S) (FT/S)
CHESAPEAKE LIGHT 1200   78     280/ 11/ 12 1015.4
BUOY 44014       1300   79 78  270/ 10/ 12 1014.0    2/ 6   2/ 6
DUCK             1300   79 78  280/  7/ 10 1014.1
2E DUCK          1300                        N/A     1/ 7
OREGON INLET     1300   79 83  320/  5/  7 1014.8
BUOY 44095       1300      80                N/A     2/ 8
20E OREGON INLET NOT AVBL
HATTERAS CG      1300   80 82  340/  9/ 10 1015.5
DIAMOND BUOY     1300   81     270/ 12/ 14 1014.7    2/ 8   2/ 8
CAPE LOOKOUT     1200   82     260/  8/ 10 1015.7
BEAUFORT LAB     1300   82 82  310/  3/  5 1015.8
30 SE NEW RIVER  1300   82 82  270/ 10/ 12 1015.6    2/ 4   2/ 8
5 SE WRIGHTSVILL 1300   77 83  260/  6/  6   N/A
BUOY 41002       1209   82 82  260/ 12/ 16 1017.9    2/ 5   2/ 8
BUOY 41004       1300   84 84  280/  6/  8 1016.7    2/ 9   2/ 9

$$



USA.gov is the U.S. government's official web portal to all federal, state and local government web resources and services.